Location: Newark
(55.1520°N, 2.9990°W)
Time: 13:53:17
(UTC+00:00)

X-37B - Visible Passes

Search period start: 29 September 2020 00:00
Search period end: 09 October 2020 00:00
Orbit: 386 x 387 km, 45.0° (Epoch: 18 September)

Date Brightness Start Highest point End Pass type
(mag) Time Alt. Az. Time Alt. Az. Time Alt. Az.
05 Oct 3.2 19:27:53 10° S 19:28:10 11° S 19:28:10 11° S visible
07 Oct 2.9 19:06:33 10° SSW 19:08:06 13° S 19:08:32 13° SSE visible
08 Oct 3.1 18:08:46 10° S 18:09:49 11° SSE 18:10:53 10° SSE visible
08 Oct 3.2 19:43:54 10° SW 19:44:47 13° SSW 19:44:47 13° SSW visible
